Previsão horária em Almametevo

Hoje, 25 Junho, Sexta-feira

Tempo Temperatura Precipitação Vento Pressão Humidade
00:00 +24°C° 0 mm 2 m/s 752 mmHg 72%
01:00 +24°C° 0 mm 2 m/s 752 mmHg 76%
02:00 +23°C° 0 mm 2 m/s 752 mmHg 79%
03:00 +23°C° 0 mm 2 m/s 752 mmHg 81%
04:00 +24°C° 0 mm 2 m/s 752 mmHg 78%
05:00 +25°C° 0 mm 2 m/s 752 mmHg 76%
06:00 +26°C° 0 mm 3 m/s 752 mmHg 73%
07:00 +28°C° 0 mm 3 m/s 752 mmHg 66%
08:00 +30°C° 0 mm 3 m/s 752 mmHg 58%
09:00 +33°C° 0 mm 3 m/s 752 mmHg 51%
10:00 +34°C° 0 mm 3 m/s 751 mmHg 47%
11:00 +34°C° 0 mm 4 m/s 751 mmHg 44%
12:00 +35°C° 0 mm 4 m/s 751 mmHg 40%
13:00 +35°C° 0 mm 4 m/s 751 mmHg 40%
14:00 +36°C° 0 mm 4 m/s 751 mmHg 40%
15:00 +36°C° 0 mm 4 m/s 751 mmHg 40%
16:00 +35°C° 0 mm 3 m/s 751 mmHg 45%
17:00 +34°C° 0 mm 2 m/s 750 mmHg 50%
18:00 +33°C° 0 mm 1 m/s 749 mmHg 56%
19:00 +29°C° 1.8 mm 2 m/s 750 mmHg 63%
20:00 +25°C° 1.8 mm 2 m/s 750 mmHg 70%
21:00 +20°C° 1.8 mm 3 m/s 751 mmHg 78%
22:00 +20°C° 0 mm 3 m/s 750 mmHg 77%
23:00 +20°C° 0 mm 2 m/s 750 mmHg 77%

Amanhã, 26 Junho, Sábado

Tempo Temperatura Precipitação Vento Pressão Humidade
00:00 +20°C° 0 mm 2 m/s 750 mmHg 76%
01:00 +20°C° 0 mm 2 m/s 750 mmHg 79%
02:00 +19°C° 0 mm 2 m/s 750 mmHg 81%
03:00 +20°C° 0 mm 1 m/s 750 mmHg 83%
04:00 +20°C° 0 mm 2 m/s 750 mmHg 82%
05:00 +23°C° 0 mm 2 m/s 750 mmHg 80%
06:00 +24°C° 0 mm 2 m/s 750 mmHg 78%
07:00 +26°C° 0 mm 2 m/s 750 mmHg 71%
08:00 +28°C° 0 mm 2 m/s 750 mmHg 63%
09:00 +29°C° 0 mm 2 m/s 750 mmHg 56%
10:00 +30°C° 0 mm 2 m/s 750 mmHg 53%
11:00 +31°C° 0 mm 3 m/s 750 mmHg 49%
12:00 +33°C° 0 mm 3 m/s 750 mmHg 46%
13:00 +33°C° 0 mm 3 m/s 750 mmHg 46%
14:00 +33°C° 0 mm 3 m/s 750 mmHg 47%
15:00 +33°C° 0 mm 3 m/s 749 mmHg 47%
16:00 +31°C° 0.2 mm 3 m/s 749 mmHg 54%
17:00 +30°C° 0.2 mm 2 m/s 749 mmHg 61%
18:00 +29°C° 0.2 mm 2 m/s 749 mmHg 68%
19:00 +27°C° 0.5 mm 2 m/s 749 mmHg 75%
20:00 +25°C° 0.5 mm 1 m/s 749 mmHg 83%
21:00 +23°C° 0.5 mm 1 m/s 749 mmHg 90%
22:00 +22°C° 0.1 mm 1 m/s 749 mmHg 90%
23:00 +22°C° 0.1 mm 1 m/s 749 mmHg 91%

Depois de amanhã, 27 Junho, Domingo

Tempo Temperatura Precipitação Vento Pressão Humidade
00:00 +20°C° 0.1 mm 0 m/s 749 mmHg 91%
01:00 +22°C° 0 mm 1 m/s 749 mmHg 91%
02:00 +22°C° 0 mm 1 m/s 749 mmHg 92%
03:00 +21°C° 0 mm 1 m/s 749 mmHg 92%
04:00 +22°C° 0 mm 1 m/s 749 mmHg 89%
05:00 +23°C° 0 mm 1 m/s 749 mmHg 87%
06:00 +24°C° 0 mm 1 m/s 749 mmHg 84%
07:00 +26°C° 0 mm 1 m/s 749 mmHg 76%
08:00 +26°C° 0 mm 0 m/s 749 mmHg 67%
09:00 +28°C° 0 mm 0 m/s 749 mmHg 59%
10:00 +29°C° 0 mm 0 m/s 749 mmHg 55%
11:00 +32°C° 0 mm 1 m/s 749 mmHg 50%
12:00 +33°C° 0 mm 1 m/s 750 mmHg 46%
13:00 +33°C° 0 mm 1 m/s 749 mmHg 48%
14:00 +32°C° 0 mm 1 m/s 749 mmHg 49%
15:00 +32°C° 0 mm 1 m/s 749 mmHg 51%
16:00 +31°C° 0.1 mm 1 m/s 749 mmHg 57%
17:00 +30°C° 0.1 mm 1 m/s 749 mmHg 62%
18:00 +29°C° 0.1 mm 2 m/s 749 mmHg 68%
19:00 +28°C° 0.1 mm 1 m/s 749 mmHg 73%
20:00 +26°C° 0.1 mm 1 m/s 749 mmHg 78%
21:00 +25°C° 0.1 mm 1 m/s 749 mmHg 83%
22:00 +24°C° 0.3 mm 1 m/s 749 mmHg 85%
23:00 +23°C° 0.3 mm 1 m/s 749 mmHg 87%

28 Junho, Segunda-feira

Tempo Temperatura Precipitação Vento Pressão Humidade
00:00 +23°C° 0.3 mm 1 m/s 749 mmHg 90%
01:00 +22°C° 0.1 mm 1 m/s 749 mmHg 89%
02:00 +22°C° 0.1 mm 1 m/s 749 mmHg 89%
03:00 +22°C° 0.1 mm 1 m/s 749 mmHg 89%
04:00 +23°C° 0 mm 1 m/s 749 mmHg 87%
05:00 +24°C° 0 mm 1 m/s 749 mmHg 84%
06:00 +25°C° 0 mm 1 m/s 749 mmHg 82%
07:00 +27°C° 0 mm 1 m/s 749 mmHg 75%
08:00 +29°C° 0 mm 2 m/s 749 mmHg 67%
09:00 +30°C° 0 mm 2 m/s 749 mmHg 60%
10:00 +31°C° 0.1 mm 2 m/s 749 mmHg 56%
11:00 +33°C° 0.1 mm 3 m/s 749 mmHg 52%
12:00 +34°C° 0.1 mm 3 m/s 749 mmHg 48%
13:00 +34°C° 0 mm 3 m/s 749 mmHg 49%
14:00 +34°C° 0 mm 3 m/s 749 mmHg 49%
15:00 +34°C° 0 mm 2 m/s 749 mmHg 50%
16:00 +32°C° 0 mm 2 m/s 748 mmHg 54%
17:00 +31°C° 0 mm 2 m/s 748 mmHg 59%
18:00 +30°C° 0 mm 2 m/s 748 mmHg 64%
19:00 +29°C° 0 mm 2 m/s 748 mmHg 69%
20:00 +27°C° 0 mm 2 m/s 748 mmHg 74%
21:00 +26°C° 0 mm 2 m/s 748 mmHg 79%
22:00 +25°C° 0.1 mm 2 m/s 748 mmHg 81%
23:00 +25°C° 0.1 mm 2 m/s 748 mmHg 82%

29 Junho, Terça-feira

Tempo Temperatura Precipitação Vento Pressão Humidade
00:00 +24°C° 0.1 mm 2 m/s 748 mmHg 84%
01:00 +24°C° 0.1 mm 1 m/s 747 mmHg 85%
02:00 +23°C° 0.1 mm 1 m/s 747 mmHg 86%
03:00 +23°C° 0.1 mm 1 m/s 747 mmHg 87%
04:00 +24°C° 0 mm 1 m/s 747 mmHg 84%
05:00 +25°C° 0 mm 1 m/s 747 mmHg 80%
06:00 +27°C° 0 mm 1 m/s 747 mmHg 76%
07:00 +28°C° 0 mm 2 m/s 747 mmHg 70%
08:00 +30°C° 0 mm 2 m/s 747 mmHg 63%
09:00 +32°C° 0 mm 2 m/s 747 mmHg 56%
10:00 +34°C° 0 mm 2 m/s 747 mmHg 52%
11:00 +34°C° 0 mm 3 m/s 747 mmHg 48%
12:00 +35°C° 0 mm 3 m/s 747 mmHg 45%
13:00 +35°C° 0 mm 3 m/s 747 mmHg 45%
14:00 +35°C° 0 mm 4 m/s 747 mmHg 45%
15:00 +35°C° 0 mm 4 m/s 747 mmHg 45%
16:00 +34°C° 0 mm 4 m/s 746 mmHg 51%
17:00 +34°C° 0 mm 3 m/s 746 mmHg 57%
18:00 +32°C° 0 mm 2 m/s 746 mmHg 64%
19:00 +30°C° 0.2 mm 2 m/s 746 mmHg 71%
20:00 +28°C° 0.2 mm 2 m/s 746 mmHg 78%
21:00 +26°C° 0.2 mm 1 m/s 745 mmHg 85%
22:00 +25°C° 0.5 mm 2 m/s 746 mmHg 88%
23:00 +24°C° 0.5 mm 2 m/s 746 mmHg 91%

30 Junho, Quarta-feira

Tempo Temperatura Precipitação Vento Pressão Humidade
00:00 +22°C° 0.5 mm 3 m/s 746 mmHg 95%
01:00 +22°C° 0 mm 3 m/s 747 mmHg 96%
02:00 +21°C° 0 mm 3 m/s 747 mmHg 97%
03:00 +21°C° 0 mm 2 m/s 747 mmHg 98%
04:00 +21°C° 0 mm 3 m/s 747 mmHg 95%
05:00 +21°C° 0 mm 3 m/s 747 mmHg 92%
06:00 +21°C° 0 mm 3 m/s 747 mmHg 89%
07:00 +24°C° 0 mm 3 m/s 748 mmHg 81%
08:00 +25°C° 0 mm 3 m/s 748 mmHg 72%
09:00 +26°C° 0 mm 3 m/s 748 mmHg 63%
10:00 +27°C° 0 mm 3 m/s 748 mmHg 58%
11:00 +28°C° 0 mm 3 m/s 748 mmHg 53%
12:00 +29°C° 0 mm 2 m/s 748 mmHg 48%
13:00 +29°C° 0 mm 2 m/s 748 mmHg 46%
14:00 +30°C° 0 mm 2 m/s 748 mmHg 44%
15:00 +30°C° 0 mm 2 m/s 748 mmHg 42%
16:00 +30°C° 0 mm 2 m/s 748 mmHg 47%
17:00 +29°C° 0 mm 1 m/s 748 mmHg 53%
18:00 +29°C° 0 mm 1 m/s 748 mmHg 58%
19:00 +26°C° 0 mm 1 m/s 748 mmHg 65%
20:00 +24°C° 0 mm 1 m/s 748 mmHg 72%
21:00 +22°C° 0 mm 1 m/s 748 mmHg 78%
22:00 +22°C° 0 mm 1 m/s 748 mmHg 80%
23:00 +21°C° 0 mm 1 m/s 748 mmHg 81%
Mostrar mais